Home > Weather > Rust > Past weeks

Flag for Austria Past Weather in Rust, Burgenland, Austria — Yesterday and Last 2 Weeks

Now
72 °F

Mild.


Feels Like: 75 °F
Forecast: 55 / 79 °F
Wind: 6 mph from North

Location: Eisenstadt

Current Time: Aug 24, 2016 at 10:44:35 AM

Latest Report: Aug 24, 2016 at 10:00 AM


Visibility: N/A

Pressure: 30.27 "Hg

Humidity: 67%

Dew Point: 60 °F

Location of RustLocation

Past Weather in Rust — Graph

°F

Rust Temperature Yesterday

Maximum temperature yesterday: 79 °F (at 5:00 PM)
Minimum temperature yesterday: 57 °F (at 6:00 AM)
Average temperature yesterday: 69 °F

High & Low Weather Summary for the Past Weeks

 TemperatureHumidityPressure
High83 °F (Aug 14, 5:00 PM)97% (Aug 20, 7:00 AM)30.33 "Hg (Aug 20, 7:00 AM)
Low53 °F (Aug 12, 6:00 AM)38% (Aug 17, 6:00 PM)29.80 "Hg (Aug 18, 4:00 PM)
Average66 °F73%30.07 "Hg
* Reported Aug 9 9:00 AM — Aug 24 9:00 AM, Rust, Weather by CustomWeather, © 2016

Note: Actual official high and low records may vary slightly from our data, if they occured in-between our weather recording intervals... More about our weather records

Advertising

Rust Weather History for the Previous 24 Hours

Scroll right to see more
 ConditionsComfort  
Time TempWeatherWind HumidityBarometerVisibility
9:00 AM
Wed, Aug 24
69 °FMild.5 mph70%30.27 "HgN/A
8:00 AM67 °FPartly sunny.3 mph73%30.27 "Hg9 mi
7:00 AM65 °FScattered clouds.5 mph77%30.27 "Hg12 mi
6:00 AM62 °FMild.5 mph82%30.27 "HgN/A
5:00 AM61 °FCool.1 mph86%30.27 "HgN/A
4:00 AM62 °FMild.2 mph83%30.27 "HgN/A
3:00 AM63 °FMild.1 mph83%30.28 "HgN/A
2:00 AM65 °FClear.1 mph77%30.27 "Hg12 mi
1:00 AM64 °FMild.3 mph80%30.28 "HgN/A
12:00 AM66 °FMild.3 mph74%30.27 "HgN/A
11:00 PM
Tue, Aug 23
68 °FClear.1 mph69%30.27 "Hg12 mi
10:00 PM70 °FMild.2 mph65%30.26 "HgN/A
9:00 PM71 °FMild.3 mph61%30.25 "HgN/A
8:00 PM73 °FPassing clouds.5 mph58%30.24 "Hg12 mi
7:00 PM76 °FScattered clouds.3 mph53%30.23 "Hg12 mi
6:00 PM77 °FWarm.2 mph50%30.24 "HgN/A
5:00 PM79 °FScattered clouds.2 mph46%30.24 "Hg12 mi
4:00 PM78 °FWarm.5 mph44%30.25 "HgN/A
3:00 PM77 °FWarm.5 mph44%30.26 "HgN/A
2:00 PM76 °FPassing clouds.5 mph45%30.28 "Hg12 mi
1:00 PM74 °FMild.6 mph48%30.29 "HgN/A
12:00 PM74 °FMild.3 mph51%30.30 "HgN/A
11:00 AM72 °FSunny.5 mph56%30.31 "Hg12 mi
10:00 AM70 °FMild.5 mph58%30.32 "HgN/A
Weather by CustomWeather, © 2016

See weather overviewHow to use our weather pages